Torna al catalogo

STARLINK-30805

AttivoComunicazioniVLEO
NORAD 58214·PAYLOAD·🇺🇸 United States

Lanciato Nov 3, 2023 da Cape Canaveral Space Force Station

Loading…

Prossimi Passaggi (prossime 24 ore)

TLE

AggiornatoSource: CelesTrak SupGP

Epoca: Sep 14, 2026, 21:59 UTC

1 58214C 23170J   26257.91645833  .00009641  00000+0  34922-3 0  2573
2 58214  43.0017 205.2951 0001559 260.3261  58.6890 15.27570335    16

Traccia STARLINK-30805 in tempo reale con AllMySat

Download on the App Store